EA4URG-1 Weather Reports


Display with metric or nautical units.
time (UTC)temp
F
wind
direction
speed
MPH
gust
MPH
rain 1hr
in
rain 24hr
in
rain mn
in
humidity
%
barometer
mb
20190624181001 63 302 47.0 22.0 0.00 0.00 0.00 6 1019.7
20190624180501 63 304 55.0 22.0 0.00 0.00 0.00 6 1019.8
20190624180001 64 311 44.0 22.0 0.00 0.00 0.00 6 1019.7
20190624175501 64 302 38.0 22.0 0.00 0.00 0.00 6 1019.6
20190624175001 64 302 27.0 22.0 0.00 0.00 0.00 6 1019.7
20190624174501 65 297 32.0 22.0 0.00 0.00 0.00 6 1019.5
20190624174001 65 321 30.0 22.0 0.00 0.00 0.00 6 1019.6
20190624173501 65 311 30.0 22.0 0.00 0.00 0.00 6 1019.5
20190624173001 65 313 41.0 22.0 0.00 0.00 0.00 5 1019.5
20190624172501 68 309 30.0 22.0 0.00 0.00 0.00 5 1019.5
20190624172001 69 267 22.0 22.0 0.00 0.00 0.00 4 1019.5
20190624171501 69 246 13.0 22.0 0.00 0.00 0.00 4 1019.6
20190624171001 69 284 11.0 22.0 0.00 0.00 0.00 4 1019.6
20190624170501 68 208 27.0 22.0 0.00 0.00 0.00 4 1019.7
20190624170001 68 246 22.0 22.0 0.00 0.00 0.00 4 1019.6
20190624165501 68 256 24.0 22.0 0.00 0.00 0.00 4 1019.7
20190624165002 68 285 16.0 22.0 0.00 0.00 0.00 4 1019.7
20190624164501 68 259 13.0 22.0 0.00 0.00 0.00 4 1019.7
20190624164001 68 263 27.0 22.0 0.00 0.00 0.00 4 1019.7
20190624163501 69 261 22.0 22.0 0.00 0.00 0.00 4 1019.6
20190624163002 69 217 5.0 22.0 0.00 0.00 0.00 4 1019.5
20190624162522 69 173 36.0 22.0 0.00 0.00 0.00 4 1019.7
20190624162001 69 202 8.0 22.0 0.00 0.00 0.00 4 1019.5
20190624161501 69 163 24.0 22.0 0.00 0.00 0.00 4 1019.5
20190624161001 69 226 19.0 22.0 0.00 0.00 0.00 4 1019.5
20190624160501 69 241 19.0 22.0 0.00 0.00 0.00 4 1019.5
20190624160001 69 238 30.0 22.0 0.00 0.00 0.00 4 1019.5
20190624155501 69 222 24.0 22.0 0.00 0.00 0.00 4 1019.4
20190624155001 69 196 27.0 22.0 0.00 0.00 0.00 4 1019.5
20190624154501 69 198 32.0 22.0 0.00 0.00 0.00 4 1019.5
20190624154001 68 170 19.0 22.0 0.00 0.00 0.00 4 1019.4
20190624153501 69 211 24.0 22.0 0.00 0.00 0.00 4 1019.5
20190624153001 69 192 27.0 22.0 0.00 0.00 0.00 4 1019.5
20190624152501 69 200 24.0 22.0 0.00 0.00 0.00 4 1019.3
20190624152001 69 188 36.0 22.0 0.00 0.00 0.00 4 1019.4
20190624151501 70 166 47.0 22.0 0.00 0.00 0.00 4 1019.5
20190624151001 69 158 19.0 22.0 0.00 0.00 0.00 4 1019.2
20190624150501 69 244 27.0 22.0 0.00 0.00 0.00 4 1019.4
20190624150001 68 168 22.0 22.0 0.00 0.00 0.00 4 1019.4
20190624145501 68 209 19.0 22.0 0.00 0.00 0.00 4 1019.4
20190624145001 68 237 27.0 22.0 0.00 0.00 0.00 4 1019.5
20190624144501 68 188 16.0 22.0 0.00 0.00 0.00 4 1019.4
20190624144001 68 140 44.0 22.0 0.00 0.00 0.00 4 1019.5
20190624143501 68 192 38.0 22.0 0.00 0.00 0.00 4 1019.5
20190624143001 69 136 32.0 22.0 0.00 0.00 0.00 4 1019.3
20190624142501 69 132 41.0 22.0 0.00 0.00 0.00 4 1019.3
20190624142002 68 95 16.0 22.0 0.00 0.00 0.00 4 1019.3
20190624141501 67 135 27.0 22.0 0.00 0.00 0.00 4 1019.3
20190624141001 67 141 47.0 22.0 0.00 0.00 0.00 4 1019.5
20190624140501 67 117 41.0 22.0 0.00 0.00 0.00 4 1019.3
20190624140001 67 153 36.0 22.0 0.00 0.00 0.00 4 1019.4
20190624135501 68 141 60.0 22.0 0.00 0.00 0.00 3 1019.4
20190624135001 69 145 22.0 22.0 0.00 0.00 0.00 4 1019.3
20190624134501 68 139 52.0 22.0 0.00 0.00 0.00 4 1019.3
20190624134001 68 132 41.0 22.0 0.00 0.00 0.00 4 1019.3
20190624133501 68 146 52.0 22.0 0.00 0.00 0.00 4 1019.2
20190624133001 67 133 44.0 22.0 0.00 0.00 0.00 4 1019.1
20190624132501 67 136 47.0 22.0 0.00 0.00 0.00 4 1019.1
20190624132001 68 147 41.0 22.0 0.00 0.00 0.00 4 1019.3
20190624131501 67 163 32.0 22.0 0.00 0.00 0.00 4 1019.1
20190624131001 67 155 57.0 22.0 0.00 0.00 0.00 4 1019.0
20190624130502 68 142 44.0 22.0 0.00 0.00 0.00 4 1019.0
20190624130003 68 143 36.0 22.0 0.00 0.00 0.00 4 1019.0
20190624125501 67 175 27.0 22.0 0.00 0.00 0.00 4 1019.2
20190624125001 67 118 30.0 22.0 0.00 0.00 0.00 4 1019.1
20190624124501 66 114 22.0 22.0 0.00 0.00 0.00 4 1019.1
20190624124001 66 130 32.0 22.0 0.00 0.00 0.00 4 1018.9
20190624123501 66 125 38.0 22.0 0.00 0.00 0.00 4 1019.1
20190624123001 66 126 41.0 22.0 0.00 0.00 0.00 4 1018.9
20190624122501 66 134 38.0 22.0 0.00 0.00 0.00 4 1019.3
20190624122001 66 121 44.0 22.0 0.00 0.00 0.00 4 1019.1
20190624121501 66 135 52.0 22.0 0.00 0.00 0.00 4 1019.4
20190624121001 66 123 44.0 22.0 0.00 0.00 0.00 4 1019.2
20190624120501 66 114 66.0 22.0 0.00 0.00 0.00 4 1019.5
20190624120001 65 121 30.0 22.0 0.00 0.00 0.00 4 1019.5
20190624115501 65 111 47.0 22.0 0.00 0.00 0.00 4 1019.6
20190624115001 65 134 38.0 22.0 0.00 0.00 0.00 4 1019.5
20190624114501 65 127 47.0 22.0 0.00 0.00 0.00 4 1019.5
20190624114001 64 116 52.0 22.0 0.00 0.00 0.00 4 1019.4
20190624113501 64 124 36.0 22.0 0.00 0.00 0.00 4 1019.6
20190624113001 63 115 55.0 22.0 0.00 0.00 0.00 4 1019.7
20190624112501 62 141 55.0 22.0 0.00 0.00 0.00 4 1019.7
20190624112001 62 131 38.0 22.0 0.00 0.00 0.00 4 1019.5
20190624111501 62 111 47.0 22.0 0.00 0.00 0.00 4 1019.4
20190624111001 62 117 30.0 22.0 0.00 0.00 0.00 5 1019.5
20190624110501 62 111 24.0 22.0 0.00 0.00 0.00 4 1019.4
20190624110002 62 114 30.0 22.0 0.00 0.00 0.00 5 1019.3
20190624105501 61 111 38.0 22.0 0.00 0.00 0.00 5 1019.5
20190624105001 61 122 36.0 22.0 0.00 0.00 0.00 5 1019.6
20190624104501 61 95 19.0 22.0 0.00 0.00 0.00 5 1019.7
20190624104001 61 124 30.0 22.0 0.00 0.00 0.00 5 1019.7
20190624103501 61 118 19.0 22.0 0.00 0.00 0.00 5 1019.8
20190624103001 62 112 38.0 22.0 0.00 0.00 0.00 4 1019.8
20190624102501 61 126 38.0 22.0 0.00 0.00 0.00 5 1019.7
20190624102001 61 124 30.0 22.0 0.00 0.00 0.00 5 1019.8
20190624101501 61 125 22.0 22.0 0.00 0.00 0.00 5 1019.8
20190624101001 61 117 30.0 22.0 0.00 0.00 0.00 5 1019.7
20190624100502 60 99 22.0 22.0 0.00 0.00 0.00 5 1019.7
20190624100003 59 104 22.0 22.0 0.00 0.00 0.00 5 1019.8
20190624095501 59 101 30.0 22.0 0.00 0.00 0.00 5 1019.8
20190624095001 58 99 13.0 22.0 0.00 0.00 0.00 5 1019.6
20190624094501 58 115 22.0 22.0 0.00 0.00 0.00 5 1019.7
20190624094001 58 114 13.0 22.0 0.00 0.00 0.00 5 1019.7
20190624093501 57 111 30.0 22.0 0.00 0.00 0.00 5 1019.8
20190624093001 57 116 38.0 22.0 0.00 0.00 0.00 5 1019.7
20190624092501 57 107 19.0 22.0 0.00 0.00 0.00 5 1019.7
20190624092001 57 108 16.0 22.0 0.00 0.00 0.00 6 1019.7
20190624091501 57 104 24.0 22.0 0.00 0.00 0.00 5 1019.7
20190624091001 56 119 27.0 22.0 0.00 0.00 0.00 6 1019.7
20190624090501 56 115 22.0 22.0 0.00 0.00 0.00 5 1019.7
20190624090001 56 106 24.0 22.0 0.00 0.00 0.00 5 1019.6
20190624085501 56 123 30.0 22.0 0.00 0.00 0.00 5 1019.5
20190624085001 56 103 16.0 22.0 0.00 0.00 0.00 5 1019.6
20190624084501 56 112 27.0 22.0 0.00 0.00 0.00 5 1019.7
20190624084001 56 123 30.0 22.0 0.00 0.00 0.00 6 1019.5
20190624083501 56 101 30.0 22.0 0.00 0.00 0.00 5 1019.3
20190624083001 56 105 22.0 22.0 0.00 0.00 0.00 5 1019.3
20190624082501 56 106 22.0 22.0 0.00 0.00 0.00 6 1019.3
20190624082001 56 106 22.0 22.0 0.00 0.00 0.00 5 1019.3
20190624081501 56 109 13.0 22.0 0.00 0.00 0.00 5 1019.4
20190624081001 56 106 22.0 22.0 0.00 0.00 0.00 5 1019.3
20190624080501 56 108 19.0 22.0 0.00 0.00 0.00 5 1019.4
20190624080001 56 112 27.0 22.0 0.00 0.00 0.00 5 1019.4
20190624075501 55 105 19.0 22.0 0.00 0.00 0.00 5 1019.4
20190624075001 55 110 22.0 22.0 0.00 0.00 0.00 5 1019.3
20190624074501 55 107 19.0 22.0 0.00 0.00 0.00 5 1019.3
20190624074001 55 108 24.0 22.0 0.00 0.00 0.00 5 1019.3
20190624073501 55 113 22.0 22.0 0.00 0.00 0.00 5 1019.3
20190624073001 56 114 22.0 22.0 0.00 0.00 0.00 5 1019.2
20190624072501 56 107 24.0 22.0 0.00 0.00 0.00 5 1019.0
20190624072001 55 108 22.0 22.0 0.00 0.00 0.00 5 1019.0
20190624071501 55 99 13.0 22.0 0.00 0.00 0.00 5 1018.8
20190624071001 55 99 13.0 22.0 0.00 0.00 0.00 5 1018.8
20190624070501 55 104 22.0 22.0 0.00 0.00 0.00 5 1018.8
20190624070001 55 107 19.0 22.0 0.00 0.00 0.00 5 1018.8
20190624065501 55 106 13.0 22.0 0.00 0.00 0.00 5 1018.7
20190624065001 55 109 19.0 22.0 0.00 0.00 0.00 5 1018.6
20190624064501 55 107 24.0 22.0 0.00 0.00 0.00 5 1018.6
20190624064002 55 113 27.0 22.0 0.00 0.00 0.00 5 1018.7
20190624063501 55 107 22.0 22.0 0.00 0.00 0.00 5 1018.6
20190624063001 55 105 30.0 22.0 0.00 0.00 0.00 5 1018.6
20190624062501 55 110 30.0 22.0 0.00 0.00 0.00 5 1018.8
20190624062001 55 115 24.0 22.0 0.00 0.00 0.00 5 1018.6
20190624061501 55 112 22.0 22.0 0.00 0.00 0.00 5 1018.7
20190624061001 55 119 32.0 22.0 0.00 0.00 0.00 5 1018.7
20190624060501 55 110 30.0 22.0 0.00 0.00 0.00 5 1018.7
20190624060001 55 114 30.0 22.0 0.00 0.00 0.00 5 1018.6
20190624055501 55 116 30.0 22.0 0.00 0.00 0.00 5 1018.6
20190624055001 55 113 30.0 22.0 0.00 0.00 0.00 6 1018.5
20190624054501 55 110 27.0 22.0 0.00 0.00 0.00 5 1018.5
20190624054002 55 105 24.0 22.0 0.00 0.00 0.00 5 1018.5
20190624053501 55 107 22.0 22.0 0.00 0.00 0.00 5 1018.4
20190624053001 55 93 22.0 22.0 0.00 0.00 0.00 5 1018.4
20190624052501 55 106 30.0 22.0 0.00 0.00 0.00 5 1018.6
20190624052001 55 104 27.0 22.0 0.00 0.00 0.00 6 1018.6
20190624051501 55 98 19.0 22.0 0.00 0.00 0.00 6 1018.6
20190624051001 55 108 27.0 22.0 0.00 0.00 0.00 6 1018.8
20190624050501 55 103 27.0 22.0 0.00 0.00 0.00 6 1018.8
20190624050001 55 105 30.0 22.0 0.00 0.00 0.00 6 1018.8
20190624045501 55 103 32.0 22.0 0.00 0.00 0.00 6 1018.8
20190624045001 56 108 24.0 22.0 0.00 0.00 0.00 5 1018.7
20190624044501 56 111 27.0 22.0 0.00 0.00 0.00 5 1018.8
20190624044001 56 109 44.0 22.0 0.00 0.00 0.00 5 1018.8
20190624043502 56 116 30.0 22.0 0.00 0.00 0.00 5 1018.9
20190624043001 56 106 30.0 22.0 0.00 0.00 0.00 5 1018.8
20190624042501 56 119 32.0 22.0 0.00 0.00 0.00 5 1018.8
20190624042001 56 112 44.0 22.0 0.00 0.00 0.00 5 1018.8
20190624041501 56 113 44.0 22.0 0.00 0.00 0.00 5 1018.7
20190624041001 56 117 24.0 22.0 0.00 0.00 0.00 5 1018.7
20190624040501 56 123 41.0 22.0 0.00 0.00 0.00 5 1018.8
20190624040002 56 121 47.0 22.0 0.00 0.00 0.00 5 1018.7
20190624035501 56 122 47.0 22.0 0.00 0.00 0.00 5 1018.6
20190624035002 56 125 38.0 22.0 0.00 0.00 0.00 5 1018.7
20190624034502 56 123 44.0 22.0 0.00 0.00 0.00 5 1018.6
20190624034001 56 114 47.0 22.0 0.00 0.00 0.00 5 1018.6
20190624033501 56 102 49.0 22.0 0.00 0.00 0.00 5 1018.6
20190624033002 57 126 38.0 22.0 0.00 0.00 0.00 5 1018.7
20190624032501 57 115 30.0 22.0 0.00 0.00 0.00 5 1018.6
20190624032002 57 122 36.0 22.0 0.00 0.00 0.00 5 1018.8
20190624031501 57 114 47.0 22.0 0.00 0.00 0.00 5 1018.6
20190624031001 57 114 44.0 22.0 0.00 0.00 0.00 5 1018.6
20190624030501 57 124 44.0 22.0 0.00 0.00 0.00 5 1018.8
20190624030001 57 112 47.0 22.0 0.00 0.00 0.00 5 1018.8
20190624025501 57 112 30.0 22.0 0.00 0.00 0.00 5 1019.0
20190624025001 57 120 49.0 22.0 0.00 0.00 0.00 5 1018.8
20190624024501 58 107 44.0 22.0 0.00 0.00 0.00 5 1018.7
20190624024001 58 109 38.0 22.0 0.00 0.00 0.00 5 1018.6
20190624023500 58 108 32.0 22.0 0.00 0.00 0.00 5 1018.5
20190624023001 58 102 30.0 22.0 0.00 0.00 0.00 5 1018.6
20190624022501 58 98 30.0 22.0 0.00 0.00 0.00 5 1018.6
20190624022001 58 105 22.0 22.0 0.00 0.00 0.00 5 1018.6
20190624021501 58 100 32.0 22.0 0.00 0.00 0.00 5 1018.6
20190624021001 58 106 27.0 22.0 0.00 0.00 0.00 5 1018.8
20190624020501 59 108 32.0 22.0 0.00 0.00 0.00 5 1018.9
20190624020001 59 106 27.0 22.0 0.00 0.00 0.00 4 1018.9
20190624015501 59 100 19.0 22.0 0.00 0.00 0.00 4 1018.8
20190624015001 59 104 30.0 22.0 0.00 0.00 0.00 4 1018.9
20190624014501 59 104 24.0 22.0 0.00 0.00 0.00 4 1019.0
20190624014001 59 112 30.0 22.0 0.00 0.00 0.00 4 1019.1
20190624013501 60 114 30.0 22.0 0.00 0.00 0.00 4 1019.0
20190624013001 60 109 32.0 22.0 0.00 0.00 0.00 4 1019.1
20190624012501 60 104 24.0 22.0 0.00 0.00 0.00 4 1019.1
20190624012001 61 104 22.0 22.0 0.00 0.00 0.00 4 1019.2
20190624011501 62 98 22.0 22.0 0.00 0.00 0.00 4 1019.4
20190624011001 62 105 16.0 22.0 0.00 0.00 0.00 4 1019.3
20190624010501 63 124 27.0 22.0 0.00 0.00 0.00 4 1019.3
20190624010001 63 126 22.0 22.0 0.00 0.00 0.00 4 1019.2
20190624005501 64 123 24.0 22.0 0.00 0.00 0.00 4 1019.1
20190624005001 64 129 27.0 22.0 0.00 0.00 0.00 4 1019.2
20190624004501 64 128 24.0 22.0 0.00 0.00 0.00 4 1019.2
20190624004001 64 131 19.0 22.0 0.00 0.00 0.00 4 1019.1
20190624003501 64 139 19.0 22.0 0.00 0.00 0.00 4 1019.2
20190624003001 64 127 19.0 22.0 0.00 0.00 0.00 4 1019.2
20190624002501 65 134 24.0 22.0 0.00 0.00 0.00 4 1019.2
20190624002001 65 141 19.0 22.0 0.00 0.00 0.00 4 1019.3
20190624001501 65 140 22.0 22.0 0.00 0.00 0.00 3 1019.3
20190624001001 65 137 24.0 22.0 0.00 0.00 0.00 3 1019.3
20190624000501 65 138 16.0 22.0 0.00 0.00 0.00 3 1019.4
20190624000001 66 135 19.0 22.0 0.00 0.00 0.00 3 1019.3
20190623235501 66 141 19.0 22.0 0.00 0.00 0.00 3 1019.4
20190623235001 66 147 22.0 22.0 0.00 0.00 0.00 3 1019.5
20190623234501 66 149 22.0 22.0 0.00 0.00 0.00 3 1019.5
20190623234001 65 151 13.0 22.0 0.00 0.00 0.00 3 1019.4
20190623233501 65 149 13.0 22.0 0.00 0.00 0.00 3 1019.3
20190623233001 63 189 5.0 22.0 0.00 0.00 0.00 4 1019.3
20190623232501 63 243 5.0 22.0 0.00 0.00 0.00 3 1019.3
20190623232001 62 234 8.0 22.0 0.00 0.00 0.00 4 1019.3
20190623231501 62 307 2.0 22.0 0.00 0.00 0.00 4 1019.3
20190623231000 61 283 13.0 22.0 0.00 0.00 0.00 4 1019.3
20190623230501 61 270 13.0 22.0 0.00 0.00 0.00 4 1019.4
20190623230001 61 296 19.0 22.0 0.00 0.00 0.00 4 1019.4
20190623225501 61 310 19.0 22.0 0.00 0.00 0.00 4 1019.4
20190623225001 61 297 24.0 22.0 0.00 0.00 0.00 4 1019.5
20190623224501 61 298 22.0 22.0 0.00 0.00 0.00 4 1019.6
20190623224002 61 281 24.0 22.0 0.00 0.00 0.00 4 1019.6
20190623223501 61 294 22.0 22.0 0.00 0.00 0.00 4 1019.6
20190623223001 61 287 22.0 22.0 0.00 0.00 0.00 4 1019.7
20190623222501 62 293 22.0 22.0 0.00 0.00 0.00 4 1019.7
20190623222000 62 301 22.0 22.0 0.00 0.00 0.00 4 1019.7
20190623221501 62 300 22.0 22.0 0.00 0.00 0.00 4 1019.7
20190623221002 63 311 27.0 22.0 0.00 0.00 0.00 4 1019.8
20190623220501 63 284 16.0 22.0 0.00 0.00 0.00 4 1019.6
20190623220001 64 282 19.0 22.0 0.00 0.00 0.00 4 1019.7
20190623215501 64 292 22.0 22.0 0.00 0.00 0.00 4 1019.7
20190623215001 64 296 24.0 22.0 0.00 0.00 0.00 4 1019.7
20190623214501 65 303 22.0 22.0 0.00 0.00 0.00 3 1019.7
20190623214001 66 323 24.0 22.0 0.00 0.00 0.00 3 1019.7
20190623213501 66 341 16.0 22.0 0.00 0.00 0.00 3 1019.7
20190623213001 66 347 13.0 22.0 0.00 0.00 0.00 3 1019.7
20190623212501 67 344 13.0 22.0 0.00 0.00 0.00 3 1019.6
20190623212001 67 341 13.0 22.0 0.00 0.00 0.00 3 1019.6
20190623211501 67 345 11.0 22.0 0.00 0.00 0.00 3 1019.7
20190623211001 67 353 13.0 22.0 0.00 0.00 0.00 3 1019.5
20190623210501 67 359 11.0 22.0 0.00 0.00 0.00 3 1019.5
20190623210001 68 307 5.0 22.0 0.00 0.00 0.00 3 1019.5
20190623205501 68 270 5.0 22.0 0.00 0.00 0.00 3 1019.5
20190623205001 68 257 5.0 22.0 0.00 0.00 0.00 3 1019.3
20190623204501 68 257 2.0 22.0 0.00 0.00 0.00 3 1019.2
20190623204001 68 257 2.0 22.0 0.00 0.00 0.00 3 1019.3
20190623203500 68 245 2.0 22.0 0.00 0.00 0.00 3 1019.1
20190623203001 68 244 2.0 22.0 0.00 0.00 0.00 3 1019.1
20190623202501 68 239 5.0 22.0 0.00 0.00 0.00 3 1019.1
20190623202001 68 224 8.0 22.0 0.00 0.00 0.00 3 1019.0
20190623201501 68 212 2.0 22.0 0.00 0.00 0.00 3 1019.0
20190623201001 68 193 5.0 22.0 0.00 0.00 0.00 3 1018.9
20190623200501 68 205 5.0 22.0 0.00 0.00 0.00 3 1018.8
20190623200001 68 193 5.0 22.0 0.00 0.00 0.00 3 1018.8
20190623195501 68 174 5.0 22.0 0.00 0.00 0.00 3 1018.8
20190623195001 68 204 5.0 22.0 0.00 0.00 0.00 3 1018.9
20190623194501 68 194 8.0 22.0 0.00 0.00 0.00 3 1019.0
20190623194001 68 176 8.0 22.0 0.00 0.00 0.00 3 1019.0
20190623193501 68 175 5.0 22.0 0.00 0.00 0.00 3 1018.8
20190623193001 68 158 13.0 22.0 0.00 0.00 0.00 3 1018.8
20190623192501 68 153 13.0 22.0 0.00 0.00 0.00 3 1018.7
20190623192001 68 161 8.0 22.0 0.00 0.00 0.00 3 1018.8
20190623191501 68 174 11.0 22.0 0.00 0.00 0.00 3 1018.9
20190623191001 68 199 8.0 22.0 0.00 0.00 0.00 3 1019.0
20190623190501 68 177 11.0 22.0 0.00 0.00 0.00 3 1018.8
20190623190001 68 156 11.0 22.0 0.00 0.00 0.00 3 1018.8
20190623185501 68 153 13.0 22.0 0.00 0.00 0.00 3 1018.8
20190623185001 68 140 13.0 22.0 0.00 0.00 0.00 3 1018.8
20190623184501 68 148 16.0 22.0 0.00 0.00 0.00 3 1018.9
20190623184001 68 152 16.0 22.0 0.00 0.00 0.00 3 1019.0
20190623183501 68 127 16.0 22.0 0.00 0.00 0.00 3 1018.8
20190623183001 69 144 13.0 22.0 0.00 0.00 0.00 3 1018.9
20190623182501 69 144 13.0 22.0 0.00 0.00 0.00 3 1019.0
20190623182001 69 145 16.0 22.0 0.00 0.00 0.00 3 1018.9
20190623181501 69 150 16.0 22.0 0.00 0.00 0.00 3 1018.8